{"data":{"norad_id":67032,"epoch":"2026-09-20T14:44:19.197312Z","epoch_age_seconds":71614,"freshness":"FRESH","line1":"1 67032U 25294C   26263.61411108  .00009215  00000+0  34387-3 0  9995","line2":"2 67032  43.0036  16.9713 0000970 266.1163  93.9578 15.27590654 44614","mean_motion":15.27590654,"eccentricity":9.7e-5,"inclination_deg":43.0036,"raan_deg":16.9713,"arg_perigee_deg":266.1163,"mean_anomaly_deg":93.9578,"bstar":0.00034387,"rev_number":4461,"period_min":94.266091261383,"perigee_km":482.35166235946,"apogee_km":483.68272627316,"semimajor_km":6861.1541943163,"source":"CELESTRAK","updated_at":"2026-09-21T09:00:36.091391Z"}}